Location: Grange Verzio
(44.5000°N, 6.9833°E)
Time: 06:37:31
(UTC+00:00)

YAOGAN 1 - Visible Passes

Search period start: 30 September 2023 00:00
Search period end: 10 October 2023 00:00
Orbit: 614 x 616 km, 97.8° (Epoch: 29 September)

Date Brightness Start Highest point End Pass type
(mag) Time Alt. Az. Time Alt. Az. Time Alt. Az.
30 Sep 2.6 18:17:58 10° SSE 18:22:16 87° WSW 18:26:37 10° NNW visible
01 Oct 3.2 18:33:53 10° S 18:38:07 59° W 18:42:23 10° NNW visible
02 Oct 3.9 18:49:58 10° SSW 18:54:00 39° W 18:58:04 10° NNW visible
03 Oct 3.4 17:30:12 10° SE 17:33:55 29° ENE 17:37:40 10° N visible
03 Oct 4.6 19:06:15 10° SSW 19:09:55 27° W 19:13:36 10° NW visible
04 Oct 2.9 17:45:36 10° SE 17:49:40 42° ENE 17:53:44 10° N visible
04 Oct 5.2 19:22:49 10° SW 19:25:52 19° W 19:28:56 10° NW visible
05 Oct 2.5 18:01:11 10° SSE 18:05:25 62° ENE 18:09:41 10° N visible
05 Oct 5.6 19:39:51 10° WSW 19:41:51 13° W 19:43:50 10° WNW visible
06 Oct 2.5 18:16:55 10° SSE 18:21:12 89° WSW 18:25:33 10° NNW visible
07 Oct 3.1 18:32:48 10° S 18:37:02 60° W 18:41:19 10° NNW visible
08 Oct 3.9 18:48:51 10° SSW 18:52:54 40° W 18:56:58 10° NNW visible
09 Oct 3.4 17:29:08 10° SE 17:32:49 29° ENE 17:36:32 10° N visible
09 Oct 4.6 19:05:06 10° SSW 19:08:47 28° W 19:12:31 10° NW visible
